Location: Harrisburg
(40.2740°N, 76.8850°W)
Time: 11:28:51
(UTC-05:00)

Tiangong 2 - Visible Passes

Search period start: 22 February 2018 00:00
Search period end: 04 March 2018 00:00
Orbit: 384 x 388 km, 42.8° (Epoch: 22 February)

Date Brightness Start Highest point End Pass type
(mag) Time Alt. Az. Time Alt. Az. Time Alt. Az.
22 Feb 3.6 19:39:36 10° WSW 19:41:35 15° SW 19:42:18 15° SSW visible
23 Feb 3.1 18:40:04 10° W 18:42:46 26° SSW 18:45:30 10° SSE visible
25 Feb 4.0 18:19:26 10° WSW 18:21:22 15° SW 18:23:17 10° S visible
